Flag for Chile Weather past 2 weeks in Talcahuano, Chile

Now
63 °F

Mostly cloudy.


Feels Like: 63 °F
Forecast: 54 / 63 °F
Wind: 9 mph from Northwest

Location: Concepcion Airport

Current Time: Dec 19, 2014 at 1:33:04 PM

Latest Report: Dec 19, 2014 at 1:00 PM


Visibility: N/A

Pressure: 30.01 "Hg

Humidity: 73%

Dew point: 54 °F

Location of TalcahuanoLocation

Historic Weather in Talcahuano — Graph

°F

Talcahuano temperature yesterday

Maximum temperature yesterday: 70 °F (at 3:00 PM)
Minimum temperature yesterday: 50 °F (at 5:00 AM)
Average temperature yesterday: 59 °F

Past Weeks' High & Low Weather Summary

 TemperatureHumidityPressure
High75 °F (Dec 8, 5:00 PM)100% (Dec 8, 6:00 AM)30.21 "Hg (Dec 8, 6:00 AM)
Low45 °F (Dec 11, 5:00 AM)46% (Dec 12, 1:00 PM)29.80 "Hg (Dec 8, 6:00 PM)
Average60 °F71%30.02 "Hg
* Reported Dec 4 12:00 Noon — Dec 19 12:00 Noon, Talcahuano, Weather by CustomWeather, © 2014

Note: Actual official high and low records may vary slightly from our data, if they occured in-between our weather recording intervals... More about our weather records

Advertising

Talcahuano weather history for previous 24 hours

 ConditionsComfort  
Time TempWeatherWind HumidityBarometerVisibility
12:00 PM
Dec 19
63 °FBroken clouds.9 mph68%30.01 "HgN/A
11:00 AM63 °FMore clouds than sun.8 mph64%30.01 "HgN/A
10:00 AM61 °FOvercast.7 mph72%30.01 "HgN/A
9:00 AM59 °FOvercast.No wind72%29.98 "HgN/A
8:00 AM55 °FPartly sunny.2 mph77%29.98 "HgN/A
7:00 AM52 °FPartly sunny.3 mph88%29.98 "HgN/A
6:00 AM50 °FClear.3 mph88%29.95 "Hg10 mi
5:00 AM54 °FClear.7 mph82%29.95 "Hg10 mi
4:00 AM54 °FClear.10 mph82%29.95 "Hg10 mi
3:00 AM54 °FClear.8 mph82%29.98 "Hg10 mi
2:00 AM54 °FClear.14 mph82%29.98 "Hg10 mi
1:00 AM55 °FClear.10 mph77%29.98 "Hg10 mi
12:00 AM55 °FClear.14 mph72%29.98 "Hg10 mi
11:00 PM
Dec 18
57 °FClear.12 mph77%29.98 "Hg10 mi
10:00 PM57 °FClear.14 mph77%29.98 "Hg10 mi
9:00 PM61 °FSunny.14 mph68%29.98 "Hg10 mi
8:00 PM63 °FSunny.15 mph64%29.98 "Hg10 mi
7:00 PM64 °FSunny.17 mph60%29.98 "Hg10 mi
6:00 PM66 °FSunny.18 mph56%29.98 "Hg10 mi
5:00 PM68 °FSunny.16 mph56%29.98 "Hg10 mi
4:00 PM70 °FSunny.17 mph50%30.01 "Hg10 mi
3:00 PM70 °FSunny.15 mph53%30.01 "Hg10 mi
2:00 PM68 °FSunny.16 mph56%30.04 "Hg10 mi
1:00 PM66 °FSunny.13 mph56%30.04 "Hg10 mi
Weather by CustomWeather, © 2014

See weather overviewHow to use our weather pages